Location: Observatoire
(46.1952°N, 5.3391°E)
Time: 07:39:52
(UTC+02:00)

PRISM - Visible Passes

Search period start: 16 April 2024 00:00
Search period end: 26 April 2024 00:00
Orbit: 508 x 528 km, 98.2° (Epoch: 15 April)

Date Brightness Start Highest point End Pass type
(mag) Time Alt. Az. Time Alt. Az. Time Alt. Az.
16 Apr ? 21:33:53 10° S 21:37:36 61° WSW 21:41:19 10° NNW visible
17 Apr ? 21:19:45 10° SSE 21:23:30 89° E 21:27:16 10° NNW visible
18 Apr ? 21:05:43 10° SSE 21:09:23 59° ENE 21:13:05 10° N visible
18 Apr ? 22:42:37 10° WSW 22:43:47 11° W 22:44:57 10° WNW visible
19 Apr ? 22:27:04 10° SW 22:29:28 16° W 22:31:52 10° NW visible
20 Apr ? 22:12:05 10° SSW 22:15:07 23° W 22:18:09 10° NW visible
21 Apr ? 21:57:21 10° SSW 22:00:45 33° W 22:04:11 10° NNW visible
22 Apr ? 21:42:44 10° S 21:46:22 50° W 21:50:01 10° NNW visible
23 Apr ? 21:28:15 10° S 21:31:59 77° WSW 21:35:43 10° NNW visible
24 Apr ? 21:13:51 10° SSE 21:17:33 70° ENE 21:21:17 10° N visible
25 Apr ? 22:35:21 10° SW 22:37:23 14° W 22:39:25 10° WNW visible
